Binghamton, NY

11:02 PM EDT on August 21, 2017 (GMT -0400)
Binghamton Regional-Link

Weather History for KBGM - November, 2012

Change the Weather History Date:

Monday, November 26, 2012

  Actual Average Record
Temperature  
Mean Temperature 33 °F 34 °F  
Max Temperature 38 °F 41 °F 63 °F (1979)
Min Temperature 28 °F 28 °F 13 °F (1974)
Degree Days  
Heating Degree Days 32 31  
Month to date heating degree days 724 677  
Since 1 July heating degree days 1395 1449  
Cooling Degree Days 0 0  
Month to date cooling degree days 0 0  
Year to date cooling degree days 548 381  
Moisture  
Dew Point 21 °F    
Average Humidity 62    
Maximum Humidity 72    
Minimum Humidity 52    
Precipitation  
Precipitation T in 0.11 in 1.67 in (1986)
Month to date precipitation 1.17 2.86  
Year to date precipitation 33.97 36.03  
Snow  
Snow T in 0.30 in 9.00 in (2014)
Month to date snowfall 2.0 4.5  
Since 1 July snowfall 2.0 5.5  
Since 1 September snowfall 2.0 5.5  
Snow Depth T in    
Sea Level Pressure  
Sea Level Pressure 30.07 in    
Wind  
Wind Speed 8 mph (West)    
Max Wind Speed 17 mph    
Max Gust Speed 22 mph    
Visibility 10 miles    
Events      
T = Trace of Precipitation, MM = Missing Value Source: NWS Daily Summary

Daily Weather History Graph

Daily Weather History Graph

Search for Another Location

Airport or City:

Trip Planner

Search our weather history database for the weather conditions in past years. The results will help you decide how hot, cold, wet, or windy it might be!

Date:

Astronomy

Nov. 26, 2012 Rise Set
Actual Time 7:08 AM EST 4:34 PM EST
Civil Twilight 6:37 AM EST 5:05 PM EST
Nautical Twilight 6:02 AM EST 5:40 PM EST
Astronomical Twilight 5:28 AM EST 6:13 PM EST
Moon 3:26 PM EST (11/26) 5:14 AM EST (11/26)
Length of Visible Light 10h 28m
Length of Day
9h 26m
Waxing Gibbous, 97% of the Moon is Illuminated
Nov 26
Waxing Gibbous
Nov 28
Full
Dec 6
Last Quarter
Dec 13
New
Dec 20
First Quarter

Hourly Weather History & Observations

Time (EST) Temp. Windchill Dew Point Humidity Pressure Visibility Wind Dir Wind Speed Gust Speed Precip Events Conditions
12:53 AM 30.0 °F 21.1 °F 21.9 °F 72% 29.88 in 10.0 mi WSW 10.4 mph - N/A   Overcast
1:53 AM 30.0 °F 23.2 °F 21.9 °F 72% 29.90 in 10.0 mi WSW 6.9 mph - N/A   Overcast
2:53 AM 30.9 °F 23.5 °F 21.9 °F 69% 29.92 in 10.0 mi West 8.1 mph - N/A   Overcast
3:33 AM 30.2 °F 21.3 °F 23.0 °F 75% 29.87 in 10.0 mi West 10.4 mph - N/A   Overcast
3:53 AM 30.9 °F 22.2 °F 23.0 °F 72% 29.93 in 10.0 mi West 10.4 mph - N/A   Overcast
4:53 AM 30.9 °F 22.8 °F 23.0 °F 72% 29.95 in 10.0 mi WSW 9.2 mph - N/A   Overcast
5:53 AM 30.9 °F 23.5 °F 21.9 °F 69% 29.98 in 10.0 mi West 8.1 mph - N/A   Overcast
6:53 AM 28.9 °F 21.9 °F 19.9 °F 69% 30.01 in 10.0 mi West 6.9 mph - N/A   Partly Cloudy
7:53 AM 30.0 °F 26.5 °F 21.0 °F 69% 30.04 in 10.0 mi WSW 3.5 mph - N/A   Scattered Clouds
8:53 AM 33.1 °F 24.4 °F 21.0 °F 61% 30.05 in 10.0 mi West 11.5 mph - N/A   Clear
9:53 AM 34.0 °F 23.8 °F 21.9 °F 61% 30.08 in 10.0 mi West 16.1 mph - N/A   Partly Cloudy
10:22 AM 35.6 °F 25.9 °F 21.2 °F 56% 30.04 in 10.0 mi West 16.1 mph 20.7 mph N/A   Mostly Cloudy
10:53 AM 37.0 °F 28.5 °F 23.0 °F 57% 30.10 in 10.0 mi West 13.8 mph 17.3 mph N/A   Overcast
11:53 AM 35.1 °F 27.4 °F 19.9 °F 54% 30.10 in 10.0 mi WNW 10.4 mph - N/A   Mostly Cloudy
12:53 PM 35.1 °F 28.6 °F 19.0 °F 52% 30.10 in 10.0 mi West 8.1 mph 20.7 mph N/A   Scattered Clouds
1:53 PM 36.0 °F 27.5 °F 19.9 °F 52% 30.12 in 10.0 mi West 12.7 mph - 0.01 in   Overcast
2:53 PM 34.0 °F 25.0 °F 19.0 °F 54% 30.14 in 10.0 mi West 12.7 mph - N/A   Overcast
3:53 PM 34.0 °F 29.8 °F 21.0 °F 59% 30.15 in 10.0 mi West 4.6 mph - N/A   Overcast
4:53 PM 33.1 °F 30.0 °F 21.0 °F 61% 30.17 in 10.0 mi West 3.5 mph - N/A   Overcast
5:53 PM 33.1 °F 30.0 °F 19.9 °F 59% 30.17 in 10.0 mi WNW 3.5 mph - N/A   Overcast
6:53 PM 30.9 °F 27.5 °F 19.9 °F 64% 30.19 in 10.0 mi West 3.5 mph - N/A   Overcast
7:53 PM 32.0 °F 27.5 °F 19.9 °F 61% 30.19 in 10.0 mi WSW 4.6 mph - N/A   Overcast
8:53 PM 32.0 °F 28.7 °F 19.9 °F 61% 30.19 in 10.0 mi SW 3.5 mph - N/A   Overcast
9:53 PM 32.0 °F 26.4 °F 19.9 °F 61% 30.20 in 10.0 mi SW 5.8 mph - N/A   Overcast
10:53 PM 32.0 °F 27.5 °F 19.9 °F 61% 30.21 in 10.0 mi SW 4.6 mph - N/A   Overcast
11:53 PM 32.0 °F - 19.9 °F 61% 30.22 in 10.0 mi Calm Calm - N/A   Overcast